Location: Rumah Long Bangan
(2.8362°N, 113.7519°E)
Time: 04:58:14
(UTC+00:00)

Ariane 5 R/B - Pass Details

Date: 24 October 2021
Orbit: 716 x 35413 km, 6.9° (Epoch: 28 November)

Event Time Altitude Azimuth Distance (km) Brightness Sun altitude
Exits shadow 20:07:34 58° 61° (ENE) 925 4.0 -30.3°
Drops below altitude 10° 20:10:44 10° 88° (E) 2,180 6.7 -29.5°
Sets 20:12:48 0° 91° (E) 3,219 7.9 -29.0°
